TimeMST,TemperatureF,Dew PointF,Humidity,Sea Level PressureIn,VisibilityMPH,Wind Direction,Wind SpeedMPH,Gust SpeedMPH,PrecipitationIn,Events,Conditions,WindDirDegrees,DateUTC
12:56 AM,34.0,28.0,79,29.97,10.0,Calm,Calm,-,N/A,,Overcast,0,2012-11-25 07:56:00
1:56 AM,34.0,28.0,79,29.95,10.0,WSW,5.8,-,N/A,,Overcast,240,2012-11-25 08:56:00
2:56 AM,33.1,28.9,85,29.96,10.0,Calm,Calm,-,N/A,,Overcast,0,2012-11-25 09:56:00
3:56 AM,35.1,28.0,76,29.95,10.0,Calm,Calm,-,N/A,,Overcast,0,2012-11-25 10:56:00
4:44 AM,33.8,28.4,81,29.92,6.0,NE,3.5,-,0.00,Snow,Light Snow,40,2012-11-25 11:44:00
4:56 AM,33.1,28.9,85,29.98,6.0,Calm,Calm,-,0.00,Snow,Light Snow,0,2012-11-25 11:56:00
5:56 AM,33.1,30.9,92,29.99,9.0,West,5.8,-,0.00,,Overcast,270,2012-11-25 12:56:00
6:21 AM,33.8,30.2,87,29.93,2.0,WNW,6.9,-,0.01,Snow,Light Snow,300,2012-11-25 13:21:00
6:30 AM,33.8,30.2,87,29.93,2.0,WNW,8.1,-,0.01,Snow,Light Snow,300,2012-11-25 13:30:00
6:37 AM,32.0,30.2,93,29.94,1.8,WNW,6.9,-,0.01,Snow,Light Snow,300,2012-11-25 13:37:00
6:45 AM,32.0,30.2,93,29.94,2.5,WNW,5.8,-,0.01,Snow,Light Snow,290,2012-11-25 13:45:00
6:56 AM,32.0,30.9,96,30.01,5.0,NW,5.8,-,0.01,Snow,Light Snow,310,2012-11-25 13:56:00
7:04 AM,32.0,30.2,93,29.95,6.0,NW,4.6,-,0.00,Snow,Light Snow,320,2012-11-25 14:04:00
7:19 AM,32.0,30.2,93,29.96,2.5,NNW,11.5,-,0.00,Snow,Light Snow,340,2012-11-25 14:19:00
7:24 AM,32.0,30.2,93,29.96,1.8,NNW,11.5,-,0.01,Snow,Light Snow,340,2012-11-25 14:24:00
7:32 AM,32.0,28.4,87,29.96,2.5,NNW,10.4,-,0.01,Snow,Light Snow,340,2012-11-25 14:32:00
7:37 AM,32.0,28.4,87,29.96,2.5,NNW,11.5,-,0.01,Snow,Light Snow,340,2012-11-25 14:37:00
7:41 AM,32.0,28.4,87,29.96,1.2,NNW,8.1,-,0.02,Snow,Light Snow,330,2012-11-25 14:41:00
7:54 AM,30.2,28.4,93,29.97,2.0,West,6.9,-,0.02,Snow,Light Snow,270,2012-11-25 14:54:00
7:56 AM,32.0,28.9,88,30.04,3.0,West,6.9,-,0.02,Snow,Light Snow,280,2012-11-25 14:56:00
8:06 AM,32.0,28.4,87,29.97,2.5,WNW,9.2,-,0.00,Snow,Light Snow,290,2012-11-25 15:06:00
8:08 AM,32.0,28.4,87,29.97,1.2,WNW,9.2,-,0.01,Snow,Light Snow,290,2012-11-25 15:08:00
8:12 AM,32.0,28.4,87,29.98,0.8,WNW,8.1,-,0.01,Snow,Light Snow,290,2012-11-25 15:12:00
8:29 AM,32.0,28.4,87,29.99,1.0,NNW,3.5,-,0.01,Snow,Light Snow,330,2012-11-25 15:29:00
8:38 AM,30.2,28.4,93,29.99,2.0,WSW,3.5,-,0.01,Snow,Light Snow,240,2012-11-25 15:38:00
8:51 AM,30.2,28.4,93,29.99,6.0,SSW,6.9,-,0.01,Snow,Light Snow,210,2012-11-25 15:51:00
8:56 AM,30.9,28.0,89,30.07,8.0,SSW,6.9,-,0.01,Snow,Light Snow,210,2012-11-25 15:56:00
9:10 AM,30.2,28.4,93,29.99,10.0,SW,5.8,-,0.00,Snow,Light Snow,220,2012-11-25 16:10:00
9:56 AM,33.1,26.1,75,30.09,10.0,WSW,6.9,-,0.00,,Overcast,240,2012-11-25 16:56:00
10:56 AM,32.0,28.0,85,30.11,7.0,SW,9.2,-,0.00,Snow,Light Snow,220,2012-11-25 17:56:00
11:05 AM,32.0,26.6,80,30.04,2.5,WSW,6.9,-,0.00,Snow,Light Snow,240,2012-11-25 18:05:00
11:12 AM,32.0,26.6,80,30.04,1.2,West,5.8,-,0.00,Snow,Light Snow,260,2012-11-25 18:12:00
11:26 AM,30.2,26.6,86,30.03,2.0,SW,5.8,-,0.00,Snow,Light Snow,220,2012-11-25 18:26:00
11:33 AM,30.2,26.6,86,30.03,6.0,SW,6.9,-,0.00,Snow,Light Snow,230,2012-11-25 18:33:00
11:56 AM,30.9,27.0,85,30.12,10.0,SSW,8.1,-,0.00,,Overcast,210,2012-11-25 18:56:00
12:56 PM,32.0,27.0,82,30.11,10.0,SSW,5.8,-,N/A,,Overcast,200,2012-11-25 19:56:00
1:56 PM,32.0,26.1,79,30.11,10.0,South,6.9,-,N/A,,Overcast,190,2012-11-25 20:56:00
2:56 PM,33.1,28.0,82,30.12,10.0,South,9.2,-,N/A,,Mostly Cloudy,190,2012-11-25 21:56:00
3:56 PM,32.0,27.0,82,30.14,10.0,SSW,6.9,-,N/A,,Overcast,200,2012-11-25 22:56:00
4:56 PM,30.9,26.1,82,30.19,10.0,NE,8.1,-,N/A,,Overcast,40,2012-11-25 23:56:00
5:56 PM,30.0,23.0,75,30.21,10.0,Calm,Calm,-,N/A,,Overcast,0,2012-11-26 00:56:00
6:56 PM,28.9,17.1,61,30.25,10.0,WNW,3.5,-,N/A,,Overcast,300,2012-11-26 01:56:00
7:56 PM,28.9,16.0,58,30.28,10.0,NW,3.5,-,N/A,,Overcast,320,2012-11-26 02:56:00
8:56 PM,27.0,17.1,66,30.31,10.0,SSW,4.6,-,N/A,,Overcast,210,2012-11-26 03:56:00
9:56 PM,24.1,16.0,71,30.33,10.0,Variable,3.5,-,N/A,,Overcast,0,2012-11-26 04:56:00
10:56 PM,19.0,12.9,77,30.37,10.0,South,5.8,-,N/A,,Clear,170,2012-11-26 05:56:00
11:56 PM,19.9,12.9,74,30.38,10.0,SSE,8.1,-,N/A,,Clear,150,2012-11-26 06:56:00